User: anonymous   Login
Location: Strohbehn Observatory
(42.4649°N, 93.8239°W)
Time: 18:02:37
(UTC-06:00)
Language:

Iridium 61 - Orbit

View from above orbital plane
View from above orbital plane
View from above satellite
View from above satellite

Ground track
Ground track

The orbit data is extracted from the following two-line orbital elements,

1 25263U 98018B   14325.52028035  .00000337  00000-0  11333-3 0  9542
2 25263 086.3956 351.1919 0002189 108.5046 251.6388 14.34220237872323
Epoch (UTC): 21 November 2014 12:29:12
Eccentricity: 0.0002189
inclination: 86.3956°
perigee height: 776 km
apogee height: 779 km
right ascension of ascending node: 351.1919°
argument of perigee: 108.5046°
revolutions per day: 14.34220237
mean anomaly at epoch: 251.6388°
orbit number at epoch: 87232

The dashed part of the orbit path shows where the satellite is in the earth's shadow,  

DLR